• MPC Preparation (Info)

  • MPEC 2014-W97 : 2014 WO201

    The following Minor Planet Electronic Circular may be linked-to from your own Web pages, but must not otherwise be redistributed electronically.

    A form allowing access to any MPEC is at the bottom of this page.


    Read MPEC 2014-W96 Read MPEC 2014-W98


    M.P.E.C. 2014-W97                                Issued 2014 Nov. 25, 17:46 UT
    
         The Minor Planet Electronic Circulars contain information on unusual
             minor planets and routine data on comets.  They are published
       on behalf of Commission 20 of the International Astronomical Union by the
              Minor Planet Center, Smithsonian Astrophysical Observatory,
                              Cambridge, MA 02138, U.S.A.
    
                 Prepared using the Tamkin Foundation Computer Network
    
                                  MPC@CFA.HARVARD.EDU
                URL https://www.minorplanetcenter.net/    ISSN 1523-6714
    
                                      2014 WO201
    
    Observations:
         K14WK1O* C2014 11 22.41736 03 16 47.213+05 19 25.16         21.1 wLEW097F51
         K14WK1O  C2014 11 22.43224 03 16 52.574+05 18 22.92         21.1 wLEW097F51
         K14WK1O  C2014 11 22.46187 03 17 03.245+05 16 18.73         21.0 wLEW097F51
         K14WK1O _C2014 11 23.47388703 23 37.590+04 10 03.03         20.6 RtEW097568
         K14WK1O _C2014 11 23.47514003 23 37.996+04 09 58.36         20.8 RtEW097568
         K14WK1O _C2014 11 23.47639703 23 38.408+04 09 53.56         20.5 RtEW097568
         K14WK1O KC2014 11 25.27802 03 33 52.66 +02 28 44.3          20.6 RoEW097291
         K14WK1O KC2014 11 25.27986 03 33 53.11 +02 28 38.7          21.0 RoEW097291
         K14WK1O KC2014 11 25.28173 03 33 53.62 +02 28 32.6          21.1 RoEW097291
    
    Observer details:
    291 LPL/Spacewatch II.  Observer A. F. Tubbiolo.  1.8-m f/2.7 reflector + CCD.
    568 Mauna Kea.  Observers R. J. Wainscoat, D. Woodworth.  Measurers M. Micheli,
        R. J. Wainscoat.  3.6-m Canada-France-Hawaii Telescope + CCD.
    F51 Pan-STARRS 1, Haleakala.  Observers B. Gibson, T. Goggia, N. Primak,
        A. Schultz, M. Willman.  Measurers B. Bolin, K. Chambers, S. Chastel,
        L. Denneau, H. Flewelling, M. Huber, E. Magnier, E. Schunova, R. Wainscoat,
        C. Waters.  1.8-m Ritchey-Chretien + CCD.
    
    Orbital elements:
    2014 WO201                                               Earth MOID = 0.0327 AU
    Epoch 2014 Dec. 9.0 TT = JDT 2457000.5                  MPC
    M  32.69118              (2000.0)            P               Q
    n   0.60703259     Peri.  145.35489     +0.94293123     -0.31601648
    a   1.3814273      Node   233.40987     +0.26824857     +0.90762948
    e   0.2801370      Incl.    7.51057     +0.19729016     +0.27630111
    P   1.62           H   25.9           G   0.15           U   7
    Residuals in seconds of arc
    141122 F51  0.1-  0.0     141123 568  0.1-  0.1-    141125 291  0.4+  0.2+
    141122 F51  0.1+  0.1+    141123 568  0.1-  0.1-    141125 291  0.2-  0.2+
    141122 F51  0.1+  0.1-    141123 568  0.1-  0.2-    141125 291  0.1-  0.3-
    
    Ephemeris:
    2014 WO201               a,e,i = 1.38, 0.28, 8                   q = 0.9944
    Date    TT    R. A. (2000) Decl.     Delta      r     Elong.  Phase     V
    2014 10 26    19 36 54.8 +32 02 15   0.06577 0.9983    91.6    84.6    23.0
    ...
    2014 11 10    00 13 00.3 +30 09 27   0.03772 1.0196   139.9    38.7    20.4
    ...
    2014 11 18    02 37 39.0 +11 53 52   0.05053 1.0375   165.1    14.2    20.3
    ...
    2014 11 24    03 26 50.6 +03 39 06   0.06953 1.0537   161.7    17.2    21.1
    2014 11 25    03 32 24.9 +02 43 59   0.07312 1.0565   160.7    17.9    21.3
    2014 11 26    03 37 28.6 +01 54 48   0.07680 1.0595   159.9    18.7    21.4
    ...
    2014 12 02    04 00 03.6 -01 25 33   0.1005  1.0782   155.5    22.3    22.1
    ...
    2014 12 10    04 18 11.2 -03 15 17   0.1355  1.1057   151.4    25.3    22.9
    ...
    2014 12 25    04 38 21.5 -02 55 29   0.2113  1.1631   145.1    29.0    24.1
    
    A. U. Tomatic                (C) Copyright 2014 MPC           M.P.E.C. 2014-W97
    

    Read MPEC 2014-W96 Read MPEC 2014-W98


    MPEC number:

    Enter an MPEC number in one of the following forms:

    • 1997-B01 (the full form)
    • J97B01 (the packed version of the full form)
    • B01 (the abbreviated form)